<?xml version='1.0' encoding='UTF-8'?>
<gpx xmlns="http://www.topografix.com/GPX/1/1" creator="www.balnam.be" version="1.1" xmlns:xsi="http://www.w3.org/2001/XMLSchema-instance" xsi:schemaLocation="http://www.topografix.com/GPX/1/1 http://www.topografix.com/GPX/1/1/gpx.xsd">
<trk>
<name>negbn1</name>
<cmt>v</cmt>
<desc>Boneffe Chemin n°1 </desc>
<link href="https://chemins.be/boneffe/chemin/1"/><trkseg>
<trkpt lat="50.604129" lon="4.946427"><time>2026-05-10T00:54:36Z</time></trkpt>
<trkpt lat="50.605407" lon="4.948053"><time>2026-05-10T01:04:36Z</time></trkpt>
</trkseg></trk>
<trk>
<name>negbn1</name>
<cmt>s</cmt>
<desc>Boneffe Chemin n°1 </desc>
<link href="https://chemins.be/boneffe/chemin/1"/><trkseg>
<trkpt lat="50.605407" lon="4.948053"><time>2026-05-10T01:04:36Z</time></trkpt>
<trkpt lat="50.605956" lon="4.949600"><time>2026-05-10T01:14:36Z</time></trkpt>
<trkpt lat="50.606588" lon="4.952617"><time>2026-05-10T01:24:36Z</time></trkpt>
<trkpt lat="50.606976" lon="4.955984"><time>2026-05-10T01:34:36Z</time></trkpt>
<trkpt lat="50.606976" lon="4.957877"><time>2026-05-10T01:44:36Z</time></trkpt>
<trkpt lat="50.607565" lon="4.960470"><time>2026-05-10T01:54:36Z</time></trkpt>
<trkpt lat="50.608726" lon="4.967209"><time>2026-05-10T02:04:36Z</time></trkpt>
</trkseg>
</trk>
<trk>
<name>negbn10</name>
<cmt>r</cmt>
<desc>Boneffe Chemin n°10 Rue ès Bois</desc>
<link href="https://chemins.be/boneffe/chemin/10"/><trkseg>
<trkpt lat="50.604202" lon="4.946301"><time>2026-05-10T00:54:36Z</time></trkpt>
<trkpt lat="50.606895" lon="4.945260"><time>2026-05-10T01:04:36Z</time></trkpt>
<trkpt lat="50.608567" lon="4.943500"><time>2026-05-10T01:14:36Z</time></trkpt>
<trkpt lat="50.610177" lon="4.943280"><time>2026-05-10T01:24:36Z</time></trkpt>
</trkseg>
</trk>
<trk>
<name>negbn11</name>
<cmt>r</cmt>
<desc>Boneffe Chemin n°11 Rue du Parc / Place de Boneffe / Rue du Bonijoux</desc>
<link href="https://chemins.be/boneffe/chemin/11"/><trkseg>
<trkpt lat="50.617465" lon="4.958564"><time>2026-05-10T00:54:36Z</time></trkpt>
<trkpt lat="50.618041" lon="4.958156"><time>2026-05-10T01:04:36Z</time></trkpt>
<trkpt lat="50.618355" lon="4.958302"><time>2026-05-10T01:14:36Z</time></trkpt>
<trkpt lat="50.619476" lon="4.957114"><time>2026-05-10T01:24:36Z</time></trkpt>
<trkpt lat="50.619138" lon="4.956319"><time>2026-05-10T01:34:36Z</time></trkpt>
<trkpt lat="50.618471" lon="4.954996"><time>2026-05-10T01:44:36Z</time></trkpt>
<trkpt lat="50.617856" lon="4.953816"><time>2026-05-10T01:54:36Z</time></trkpt>
<trkpt lat="50.616746" lon="4.952926"><time>2026-05-10T02:04:36Z</time></trkpt>
<trkpt lat="50.615123" lon="4.952016"><time>2026-05-10T02:14:36Z</time></trkpt>
<trkpt lat="50.614713" lon="4.951375"><time>2026-05-10T02:24:36Z</time></trkpt>
</trkseg></trk>
<trk>
<name>negbn11</name>
<cmt>v</cmt>
<desc>Boneffe Chemin n°11 Rue du Parc / Place de Boneffe / Rue du Bonijoux</desc>
<link href="https://chemins.be/boneffe/chemin/11"/><trkseg>
<trkpt lat="50.614713" lon="4.951375"><time>2026-05-10T02:24:36Z</time></trkpt>
<trkpt lat="50.613420" lon="4.950977"><time>2026-05-10T02:34:36Z</time></trkpt>
<trkpt lat="50.612365" lon="4.949961"><time>2026-05-10T02:44:36Z</time></trkpt>
<trkpt lat="50.610254" lon="4.949582"><time>2026-05-10T02:54:36Z</time></trkpt>
<trkpt lat="50.608730" lon="4.948574"><time>2026-05-10T03:04:36Z</time></trkpt>
</trkseg>
</trk>
<trk>
<name>negbn12</name>
<cmt>s</cmt>
<desc>Boneffe Chemin n°12 </desc>
<link href="https://chemins.be/boneffe/chemin/12"/><trkseg>
<trkpt lat="50.621060" lon="4.960271"><time>2026-05-10T00:54:36Z</time></trkpt>
<trkpt lat="50.621413" lon="4.961675"><time>2026-05-10T01:04:36Z</time></trkpt>
<trkpt lat="50.623300" lon="4.961854"><time>2026-05-10T01:14:36Z</time></trkpt>
</trkseg>
</trk>
<trk>
<name>negbn13</name>
<cmt>r</cmt>
<desc>Boneffe Chemin n°13 Rue du Presbytère</desc>
<link href="https://chemins.be/boneffe/chemin/13"/><trkseg>
<trkpt lat="50.625078" lon="4.955107"><time>2026-05-10T00:54:36Z</time></trkpt>
<trkpt lat="50.624492" lon="4.955467"><time>2026-05-10T01:04:36Z</time></trkpt>
<trkpt lat="50.624030" lon="4.956069"><time>2026-05-10T01:14:36Z</time></trkpt>
<trkpt lat="50.624339" lon="4.957217"><time>2026-05-10T01:24:36Z</time></trkpt>
<trkpt lat="50.624605" lon="4.957942"><time>2026-05-10T01:34:36Z</time></trkpt>
</trkseg>
</trk>
<trk>
<name>negbn14</name>
<cmt>r</cmt>
<desc>Boneffe Chemin n°14 Rue Saint-Médard</desc>
<link href="https://chemins.be/boneffe/chemin/14"/><trkseg>
<trkpt lat="50.624180" lon="4.956749"><time>2026-05-10T00:54:36Z</time></trkpt>
<trkpt lat="50.623323" lon="4.957290"><time>2026-05-10T01:04:36Z</time></trkpt>
</trkseg>
</trk>
<trk>
<name>negbn15</name>
<cmt>s</cmt>
<desc>Boneffe Chemin n°15 </desc>
<link href="https://chemins.be/boneffe/chemin/15"/><trkseg>
<trkpt lat="50.618061" lon="4.961322"><time>2026-05-10T00:54:36Z</time></trkpt>
<trkpt lat="50.618184" lon="4.961875"><time>2026-05-10T01:04:36Z</time></trkpt>
<trkpt lat="50.616733" lon="4.962549"><time>2026-05-10T01:14:36Z</time></trkpt>
<trkpt lat="50.616411" lon="4.962206"><time>2026-05-10T01:24:36Z</time></trkpt>
</trkseg>
</trk>
<trk>
<name>negbn16</name>
<cmt>s</cmt>
<desc>Boneffe Chemin n°16 </desc>
<link href="https://chemins.be/boneffe/chemin/16"/><trkseg>
<trkpt lat="50.633175" lon="4.941355"><time>2026-05-10T00:54:36Z</time></trkpt>
<trkpt lat="50.633983" lon="4.941591"><time>2026-05-10T01:04:36Z</time></trkpt>
<trkpt lat="50.635891" lon="4.941161"><time>2026-05-10T01:14:36Z</time></trkpt>
<trkpt lat="50.636809" lon="4.940975"><time>2026-05-10T01:24:36Z</time></trkpt>
<trkpt lat="50.639840" lon="4.940630"><time>2026-05-10T01:34:36Z</time></trkpt>
<trkpt lat="50.643308" lon="4.941124"><time>2026-05-10T01:44:36Z</time></trkpt>
</trkseg>
</trk>
<trk>
<name>negbn17</name>
<cmt>r</cmt>
<desc>Boneffe Chemin n°17 Rue du Presbytère</desc>
<link href="https://chemins.be/boneffe/chemin/17"/><trkseg>
<trkpt lat="50.624261" lon="4.958361"><time>2026-05-10T00:54:36Z</time></trkpt>
<trkpt lat="50.624093" lon="4.957808"><time>2026-05-10T01:04:36Z</time></trkpt>
<trkpt lat="50.624158" lon="4.957441"><time>2026-05-10T01:14:36Z</time></trkpt>
<trkpt lat="50.624312" lon="4.957231"><time>2026-05-10T01:24:36Z</time></trkpt>
</trkseg>
</trk>
<trk>
<name>negbn18</name>
<cmt>s</cmt>
<desc>Boneffe Sentier n°18 </desc>
<link href="https://chemins.be/boneffe/sentier/18"/><trkseg>
<trkpt lat="50.641443" lon="4.943646"><time>2026-05-10T00:54:36Z</time></trkpt>
<trkpt lat="50.640527" lon="4.947212"><time>2026-05-10T01:04:36Z</time></trkpt>
<trkpt lat="50.639316" lon="4.950223"><time>2026-05-10T01:14:36Z</time></trkpt>
<trkpt lat="50.638682" lon="4.953042"><time>2026-05-10T01:24:36Z</time></trkpt>
<trkpt lat="50.637273" lon="4.957874"><time>2026-05-10T01:34:36Z</time></trkpt>
</trkseg>
</trk>
<trk>
<name>negbn19</name>
<cmt>s</cmt>
<desc>Boneffe Sentier n°19 </desc>
<link href="https://chemins.be/boneffe/sentier/19"/><trkseg>
<trkpt lat="50.626029" lon="4.960744"><time>2026-05-10T00:54:36Z</time></trkpt>
<trkpt lat="50.626136" lon="4.961042"><time>2026-05-10T01:04:36Z</time></trkpt>
<trkpt lat="50.626708" lon="4.961614"><time>2026-05-10T01:14:36Z</time></trkpt>
<trkpt lat="50.627524" lon="4.962148"><time>2026-05-10T01:24:36Z</time></trkpt>
</trkseg>
</trk>
<trk>
<name>negbn2</name>
<cmt>r</cmt>
<desc>Boneffe Chemin n°2 Route de la Hesbaye</desc>
<link href="https://chemins.be/boneffe/chemin/2"/><trkseg>
<trkpt lat="50.626819" lon="4.962775"><time>2026-05-10T00:54:36Z</time></trkpt>
<trkpt lat="50.625985" lon="4.960588"><time>2026-05-10T01:04:36Z</time></trkpt>
<trkpt lat="50.625407" lon="4.957697"><time>2026-05-10T01:14:36Z</time></trkpt>
<trkpt lat="50.625115" lon="4.954966"><time>2026-05-10T01:24:36Z</time></trkpt>
<trkpt lat="50.624862" lon="4.953281"><time>2026-05-10T01:34:36Z</time></trkpt>
<trkpt lat="50.622800" lon="4.948535"><time>2026-05-10T01:44:36Z</time></trkpt>
<trkpt lat="50.622509" lon="4.947457"><time>2026-05-10T01:54:36Z</time></trkpt>
</trkseg>
</trk>
<trk>
<name>negbn20</name>
<cmt>s</cmt>
<desc>Boneffe Sentier n°20 Sentier de la Platte Terre</desc>
<link href="https://chemins.be/boneffe/sentier/20"/><trkseg>
<trkpt lat="50.625453" lon="4.957486"><time>2026-05-10T00:54:36Z</time></trkpt>
<trkpt lat="50.628243" lon="4.955118"><time>2026-05-10T01:04:36Z</time></trkpt>
<trkpt lat="50.630393" lon="4.952925"><time>2026-05-10T01:14:36Z</time></trkpt>
</trkseg>
</trk>
<trk>
<name>negbn22</name>
<cmt>v</cmt>
<desc>Boneffe Sentier n°22 </desc>
<link href="https://chemins.be/boneffe/sentier/22"/><trkseg>
<trkpt lat="50.623966" lon="4.965283"><time>2026-05-10T00:54:36Z</time></trkpt>
<trkpt lat="50.623085" lon="4.963434"><time>2026-05-10T01:04:36Z</time></trkpt>
<trkpt lat="50.622398" lon="4.962337"><time>2026-05-10T01:14:36Z</time></trkpt>
<trkpt lat="50.622356" lon="4.961828"><time>2026-05-10T01:24:36Z</time></trkpt>
</trkseg>
</trk>
<trk>
<name>negbn24</name>
<cmt>s</cmt>
<desc>Boneffe Sentier n°24 </desc>
<link href="https://chemins.be/boneffe/sentier/24"/><trkseg>
<trkpt lat="50.609318" lon="4.956945"><time>2026-05-10T00:54:36Z</time></trkpt>
<trkpt lat="50.614302" lon="4.956301"><time>2026-05-10T01:04:36Z</time></trkpt>
<trkpt lat="50.617963" lon="4.955810"><time>2026-05-10T01:14:36Z</time></trkpt>
</trkseg>
</trk>
<trk>
<name>negbn25</name>
<cmt>v</cmt>
<desc>Boneffe Sentier n°25 </desc>
<link href="https://chemins.be/boneffe/sentier/25"/><trkseg>
<trkpt lat="50.618042" lon="4.958043"><time>2026-05-10T00:54:36Z</time></trkpt>
<trkpt lat="50.618521" lon="4.957569"><time>2026-05-10T01:04:36Z</time></trkpt>
<trkpt lat="50.618864" lon="4.957192"><time>2026-05-10T01:14:36Z</time></trkpt>
</trkseg></trk>
<trk>
<name>negbn25</name>
<cmt>s</cmt>
<desc>Boneffe Sentier n°25 </desc>
<link href="https://chemins.be/boneffe/sentier/25"/><trkseg>
<trkpt lat="50.618864" lon="4.957192"><time>2026-05-10T01:14:36Z</time></trkpt>
<trkpt lat="50.618464" lon="4.956381"><time>2026-05-10T01:24:36Z</time></trkpt>
<trkpt lat="50.618026" lon="4.955782"><time>2026-05-10T01:34:36Z</time></trkpt>
<trkpt lat="50.617945" lon="4.955753"><time>2026-05-10T01:44:36Z</time></trkpt>
<trkpt lat="50.617625" lon="4.955212"><time>2026-05-10T01:54:36Z</time></trkpt>
<trkpt lat="50.617162" lon="4.954259"><time>2026-05-10T02:04:36Z</time></trkpt>
<trkpt lat="50.615552" lon="4.952643"><time>2026-05-10T02:14:36Z</time></trkpt>
<trkpt lat="50.615078" lon="4.952086"><time>2026-05-10T02:24:36Z</time></trkpt>
</trkseg></trk>
<trk>
<name>negbn25</name>
<cmt>v</cmt>
<desc>Boneffe Sentier n°25 </desc>
<link href="https://chemins.be/boneffe/sentier/25"/><trkseg>
<trkpt lat="50.615078" lon="4.952086"><time>2026-05-10T02:24:36Z</time></trkpt>
<trkpt lat="50.611990" lon="4.951242"><time>2026-05-10T02:34:36Z</time></trkpt>
</trkseg></trk>
<trk>
<name>negbn25</name>
<cmt>s</cmt>
<desc>Boneffe Sentier n°25 </desc>
<link href="https://chemins.be/boneffe/sentier/25"/><trkseg>
<trkpt lat="50.611990" lon="4.951242"><time>2026-05-10T02:34:36Z</time></trkpt>
<trkpt lat="50.610683" lon="4.951791"><time>2026-05-10T02:44:36Z</time></trkpt>
<trkpt lat="50.608911" lon="4.950244"><time>2026-05-10T02:54:36Z</time></trkpt>
<trkpt lat="50.608395" lon="4.949107"><time>2026-05-10T03:04:36Z</time></trkpt>
<trkpt lat="50.607859" lon="4.948493"><time>2026-05-10T03:14:36Z</time></trkpt>
<trkpt lat="50.606418" lon="4.947062"><time>2026-05-10T03:24:36Z</time></trkpt>
<trkpt lat="50.605398" lon="4.947982"><time>2026-05-10T03:34:36Z</time></trkpt>
</trkseg>
</trk>
<trk>
<name>negbn25bis</name>
<cmt>v</cmt>
<desc>Boneffe Sentier n°25bis </desc>
<link href="https://chemins.be/boneffe/sentier/25bis"/><trkseg>
<trkpt lat="50.618891" lon="4.957192"><time>2026-05-10T00:54:36Z</time></trkpt>
<trkpt lat="50.619009" lon="4.957080"><time>2026-05-10T01:04:36Z</time></trkpt>
<trkpt lat="50.619169" lon="4.957450"><time>2026-05-10T01:14:36Z</time></trkpt>
</trkseg>
</trk>
<trk>
<name>negbn26</name>
<cmt>r</cmt>
<desc>Boneffe Sentier n°26 Rue du Parc</desc>
<link href="https://chemins.be/boneffe/sentier/26"/><trkseg>
<trkpt lat="50.619484" lon="4.957242"><time>2026-05-10T00:54:36Z</time></trkpt>
<trkpt lat="50.620512" lon="4.956661"><time>2026-05-10T01:04:36Z</time></trkpt>
<trkpt lat="50.621567" lon="4.956081"><time>2026-05-10T01:14:36Z</time></trkpt>
</trkseg>
</trk>
<trk>
<name>negbn27</name>
<cmt>v</cmt>
<desc>Boneffe Sentier n°27 Sentier des Rappe</desc>
<link href="https://chemins.be/boneffe/sentier/27"/><trkseg>
<trkpt lat="50.623347" lon="4.957799"><time>2026-05-10T00:54:36Z</time></trkpt>
<trkpt lat="50.623233" lon="4.957359"><time>2026-05-10T01:04:36Z</time></trkpt>
<trkpt lat="50.622710" lon="4.957607"><time>2026-05-10T01:14:36Z</time></trkpt>
</trkseg></trk>
<trk>
<name>negbn27</name>
<cmt>s</cmt>
<desc>Boneffe Sentier n°27 Sentier des Rappe</desc>
<link href="https://chemins.be/boneffe/sentier/27"/><trkseg>
<trkpt lat="50.622710" lon="4.957607"><time>2026-05-10T01:14:36Z</time></trkpt>
<trkpt lat="50.622013" lon="4.956793"><time>2026-05-10T01:24:36Z</time></trkpt>
<trkpt lat="50.621621" lon="4.956095"><time>2026-05-10T01:34:36Z</time></trkpt>
</trkseg>
</trk>
<trk>
<name>negbn28</name>
<cmt>s</cmt>
<desc>Boneffe Sentier n°28 Sentier du Pont de Pierres à l'Eglise</desc>
<link href="https://chemins.be/boneffe/sentier/28"/><trkseg>
<trkpt lat="50.622997" lon="4.959504"><time>2026-05-10T00:54:36Z</time></trkpt>
<trkpt lat="50.623020" lon="4.958558"><time>2026-05-10T01:04:36Z</time></trkpt>
<trkpt lat="50.623121" lon="4.958177"><time>2026-05-10T01:14:36Z</time></trkpt>
<trkpt lat="50.623338" lon="4.957954"><time>2026-05-10T01:24:36Z</time></trkpt>
<trkpt lat="50.623374" lon="4.957771"><time>2026-05-10T01:34:36Z</time></trkpt>
<trkpt lat="50.623762" lon="4.957535"><time>2026-05-10T01:44:36Z</time></trkpt>
</trkseg>
</trk>
<trk>
<name>negbn29</name>
<cmt>v</cmt>
<desc>Boneffe Sentier n°29 Sentier de l'Eglise</desc>
<link href="https://chemins.be/boneffe/sentier/29"/><trkseg>
<trkpt lat="50.623209" lon="4.954914"><time>2026-05-10T00:54:36Z</time></trkpt>
<trkpt lat="50.623394" lon="4.955609"><time>2026-05-10T01:04:36Z</time></trkpt>
<trkpt lat="50.623810" lon="4.956971"><time>2026-05-10T01:14:36Z</time></trkpt>
</trkseg>
</trk>
<trk>
<name>negbn3</name>
<cmt>r</cmt>
<desc>Boneffe Chemin n°3 Rue des Comognes / ? / Rue du Parc</desc>
<link href="https://chemins.be/boneffe/chemin/3"/><trkseg>
<trkpt lat="50.625389" lon="4.957626"><time>2026-05-10T00:54:36Z</time></trkpt>
<trkpt lat="50.624641" lon="4.958055"><time>2026-05-10T01:04:36Z</time></trkpt>
<trkpt lat="50.623628" lon="4.959173"><time>2026-05-10T01:14:36Z</time></trkpt>
</trkseg></trk>
<trk>
<name>negbn3</name>
<cmt>v</cmt>
<desc>Boneffe Chemin n°3 Rue des Comognes / ? / Rue du Parc</desc>
<link href="https://chemins.be/boneffe/chemin/3"/><trkseg>
<trkpt lat="50.623628" lon="4.959173"><time>2026-05-10T01:14:36Z</time></trkpt>
<trkpt lat="50.623006" lon="4.959589"><time>2026-05-10T01:24:36Z</time></trkpt>
</trkseg></trk>
<trk>
<name>negbn3</name>
<cmt>s</cmt>
<desc>Boneffe Chemin n°3 Rue des Comognes / ? / Rue du Parc</desc>
<link href="https://chemins.be/boneffe/chemin/3"/><trkseg>
<trkpt lat="50.623006" lon="4.959589"><time>2026-05-10T01:24:36Z</time></trkpt>
<trkpt lat="50.622060" lon="4.959902"><time>2026-05-10T01:34:36Z</time></trkpt>
<trkpt lat="50.618061" lon="4.961294"><time>2026-05-10T01:44:36Z</time></trkpt>
<trkpt lat="50.617482" lon="4.958587"><time>2026-05-10T01:54:36Z</time></trkpt>
</trkseg></trk>
<trk>
<name>negbn3</name>
<cmt>r</cmt>
<desc>Boneffe Chemin n°3 Rue des Comognes / ? / Rue du Parc</desc>
<link href="https://chemins.be/boneffe/chemin/3"/><trkseg>
<trkpt lat="50.617482" lon="4.958587"><time>2026-05-10T01:54:36Z</time></trkpt>
<trkpt lat="50.617009" lon="4.958757"><time>2026-05-10T02:04:36Z</time></trkpt>
<trkpt lat="50.616881" lon="4.959001"><time>2026-05-10T02:14:36Z</time></trkpt>
<trkpt lat="50.616828" lon="4.959530"><time>2026-05-10T02:24:36Z</time></trkpt>
<trkpt lat="50.611853" lon="4.965810"><time>2026-05-10T02:34:36Z</time></trkpt>
<trkpt lat="50.610301" lon="4.969400"><time>2026-05-10T02:44:36Z</time></trkpt>
</trkseg>
</trk>
<trk>
<name>negbn30</name>
<cmt>s</cmt>
<desc>Boneffe Sentier n°30 Sentier à travers les prés Steremart (?)</desc>
<link href="https://chemins.be/boneffe/sentier/30"/><trkseg>
<trkpt lat="50.622722" lon="4.955275"><time>2026-05-10T00:54:36Z</time></trkpt>
<trkpt lat="50.623351" lon="4.955326"><time>2026-05-10T01:04:36Z</time></trkpt>
<trkpt lat="50.623602" lon="4.955343"><time>2026-05-10T01:14:36Z</time></trkpt>
<trkpt lat="50.624079" lon="4.955335"><time>2026-05-10T01:24:36Z</time></trkpt>
<trkpt lat="50.624420" lon="4.955494"><time>2026-05-10T01:34:36Z</time></trkpt>
</trkseg>
</trk>
<trk>
<name>negbn31</name>
<cmt>s</cmt>
<desc>Boneffe Sentier n°31 Sentier de la Porte d'en Haut traversant le pré Stermart (?)</desc>
<link href="https://chemins.be/boneffe/sentier/31"/><trkseg>
<trkpt lat="50.623492" lon="4.955893"><time>2026-05-10T00:54:36Z</time></trkpt>
<trkpt lat="50.623611" lon="4.955329"><time>2026-05-10T01:04:36Z</time></trkpt>
<trkpt lat="50.623861" lon="4.954046"><time>2026-05-10T01:14:36Z</time></trkpt>
<trkpt lat="50.623383" lon="4.952457"><time>2026-05-10T01:24:36Z</time></trkpt>
</trkseg></trk>
<trk>
<name>negbn31</name>
<cmt>q</cmt>
<desc>Boneffe Sentier n°31 Sentier de la Porte d'en Haut traversant le pré Stermart (?)</desc>
<link href="https://chemins.be/boneffe/sentier/31"/><trkseg>
<trkpt lat="50.623383" lon="4.952457"><time>2026-05-10T01:24:36Z</time></trkpt>
<trkpt lat="50.623056" lon="4.951470"><time>2026-05-10T01:34:36Z</time></trkpt>
<trkpt lat="50.622790" lon="4.950669"><time>2026-05-10T01:44:36Z</time></trkpt>
<trkpt lat="50.623039" lon="4.949400"><time>2026-05-10T01:54:36Z</time></trkpt>
<trkpt lat="50.622764" lon="4.948676"><time>2026-05-10T02:04:36Z</time></trkpt>
</trkseg>
</trk>
<trk>
<name>negbn32</name>
<cmt>s</cmt>
<desc>Boneffe Sentier n°32 Sentier du Long Pré</desc>
<link href="https://chemins.be/boneffe/sentier/32"/><trkseg>
<trkpt lat="50.624438" lon="4.955466"><time>2026-05-10T00:54:36Z</time></trkpt>
<trkpt lat="50.623843" lon="4.954046"><time>2026-05-10T01:04:36Z</time></trkpt>
</trkseg>
</trk>
<trk>
<name>negbn33</name>
<cmt>r</cmt>
<desc>Boneffe Sentier n°33 Rue du Parc</desc>
<link href="https://chemins.be/boneffe/sentier/33"/><trkseg>
<trkpt lat="50.622632" lon="4.955288"><time>2026-05-10T00:54:36Z</time></trkpt>
<trkpt lat="50.623210" lon="4.954815"><time>2026-05-10T01:04:36Z</time></trkpt>
</trkseg>
</trk>
<trk>
<name>negbn34</name>
<cmt>v</cmt>
<desc>Boneffe Sentier n°34 Rue de l'Abbaye</desc>
<link href="https://chemins.be/boneffe/sentier/34"/><trkseg>
<trkpt lat="50.624303" lon="4.951818"><time>2026-05-10T00:54:36Z</time></trkpt>
<trkpt lat="50.623343" lon="4.952496"><time>2026-05-10T01:04:36Z</time></trkpt>
<trkpt lat="50.621601" lon="4.953718"><time>2026-05-10T01:14:36Z</time></trkpt>
<trkpt lat="50.621155" lon="4.954040"><time>2026-05-10T01:24:36Z</time></trkpt>
<trkpt lat="50.620696" lon="4.954021"><time>2026-05-10T01:34:36Z</time></trkpt>
<trkpt lat="50.620164" lon="4.954325"><time>2026-05-10T01:44:36Z</time></trkpt>
<trkpt lat="50.619731" lon="4.953067"><time>2026-05-10T01:54:36Z</time></trkpt>
</trkseg>
</trk>
<trk>
<name>negbn35</name>
<cmt>v</cmt>
<desc>Boneffe Sentier n°35 Rue du Vivier du Renard</desc>
<link href="https://chemins.be/boneffe/sentier/35"/><trkseg>
<trkpt lat="50.619251" lon="4.953536"><time>2026-05-10T00:54:36Z</time></trkpt>
<trkpt lat="50.616189" lon="4.949259"><time>2026-05-10T01:04:36Z</time></trkpt>
<trkpt lat="50.615656" lon="4.947939"><time>2026-05-10T01:14:36Z</time></trkpt>
</trkseg></trk>
<trk>
<name>negbn35</name>
<cmt>s</cmt>
<desc>Boneffe Sentier n°35 Rue du Vivier du Renard</desc>
<link href="https://chemins.be/boneffe/sentier/35"/><trkseg>
<trkpt lat="50.615656" lon="4.947939"><time>2026-05-10T01:14:36Z</time></trkpt>
<trkpt lat="50.615122" lon="4.946802"><time>2026-05-10T01:24:36Z</time></trkpt>
<trkpt lat="50.612801" lon="4.941672"><time>2026-05-10T01:34:36Z</time></trkpt>
</trkseg>
</trk>
<trk>
<name>negbn36</name>
<cmt>d</cmt>
<desc>Boneffe Sentier n°36 </desc>
<link href="https://chemins.be/boneffe/sentier/36"/><trkseg>
<trkpt lat="50.614673" lon="4.950470"><time>2026-05-10T00:54:36Z</time></trkpt>
<trkpt lat="50.615105" lon="4.950376"><time>2026-05-10T01:04:36Z</time></trkpt>
<trkpt lat="50.616251" lon="4.949401"><time>2026-05-10T01:14:36Z</time></trkpt>
</trkseg>
</trk>
<trk>
<name>negbn4</name>
<cmt>r</cmt>
<desc>Boneffe Chemin n°4 Rue de l'Abbaye</desc>
<link href="https://chemins.be/boneffe/chemin/4"/><trkseg>
<trkpt lat="50.616676" lon="4.977131"><time>2026-05-10T00:54:36Z</time></trkpt>
<trkpt lat="50.616446" lon="4.973030"><time>2026-05-10T01:04:36Z</time></trkpt>
<trkpt lat="50.616625" lon="4.971308"><time>2026-05-10T01:14:36Z</time></trkpt>
<trkpt lat="50.616248" lon="4.962571"><time>2026-05-10T01:24:36Z</time></trkpt>
<trkpt lat="50.616735" lon="4.959657"><time>2026-05-10T01:34:36Z</time></trkpt>
<trkpt lat="50.617636" lon="4.956484"><time>2026-05-10T01:44:36Z</time></trkpt>
<trkpt lat="50.619278" lon="4.953636"><time>2026-05-10T01:54:36Z</time></trkpt>
<trkpt lat="50.619784" lon="4.953006"><time>2026-05-10T02:04:36Z</time></trkpt>
</trkseg></trk>
<trk>
<name>negbn4</name>
<cmt>s</cmt>
<desc>Boneffe Chemin n°4 Rue de l'Abbaye</desc>
<link href="https://chemins.be/boneffe/chemin/4"/><trkseg>
<trkpt lat="50.619784" lon="4.953006"><time>2026-05-10T02:04:36Z</time></trkpt>
<trkpt lat="50.620282" lon="4.952320"><time>2026-05-10T02:14:36Z</time></trkpt>
<trkpt lat="50.620420" lon="4.951728"><time>2026-05-10T02:24:36Z</time></trkpt>
<trkpt lat="50.620685" lon="4.950319"><time>2026-05-10T02:34:36Z</time></trkpt>
<trkpt lat="50.620414" lon="4.950042"><time>2026-05-10T02:44:36Z</time></trkpt>
<trkpt lat="50.619111" lon="4.949140"><time>2026-05-10T02:54:36Z</time></trkpt>
<trkpt lat="50.617745" lon="4.949208"><time>2026-05-10T03:04:36Z</time></trkpt>
<trkpt lat="50.616351" lon="4.949275"><time>2026-05-10T03:14:36Z</time></trkpt>
<trkpt lat="50.617611" lon="4.945405"><time>2026-05-10T03:24:36Z</time></trkpt>
</trkseg>
</trk>
<trk>
<name>negbn5</name>
<cmt>r</cmt>
<desc>Boneffe Chemin n°5 Chaussée Romaine / Rue Romaine</desc>
<link href="https://chemins.be/boneffe/chemin/5"/><trkseg>
<trkpt lat="50.628265" lon="4.943486"><time>2026-05-10T00:54:36Z</time></trkpt>
<trkpt lat="50.629102" lon="4.946888"><time>2026-05-10T01:04:36Z</time></trkpt>
<trkpt lat="50.630009" lon="4.948779"><time>2026-05-10T01:14:36Z</time></trkpt>
<trkpt lat="50.630746" lon="4.952463"><time>2026-05-10T01:24:36Z</time></trkpt>
<trkpt lat="50.632072" lon="4.958855"><time>2026-05-10T01:34:36Z</time></trkpt>
</trkseg>
</trk>
<trk>
<name>negbn6</name>
<cmt>r</cmt>
<desc>Boneffe Chemin n°6 Chemin de Folx-les-Caves / Unnamed Road</desc>
<link href="https://chemins.be/boneffe/chemin/6"/><trkseg>
<trkpt lat="50.625187" lon="4.954953"><time>2026-05-10T00:54:36Z</time></trkpt>
<trkpt lat="50.627495" lon="4.953695"><time>2026-05-10T01:04:36Z</time></trkpt>
<trkpt lat="50.630799" lon="4.952704"><time>2026-05-10T01:14:36Z</time></trkpt>
<trkpt lat="50.639855" lon="4.944885"><time>2026-05-10T01:24:36Z</time></trkpt>
<trkpt lat="50.642193" lon="4.942864"><time>2026-05-10T01:34:36Z</time></trkpt>
<trkpt lat="50.642990" lon="4.941827"><time>2026-05-10T01:44:36Z</time></trkpt>
<trkpt lat="50.643488" lon="4.941056"><time>2026-05-10T01:54:36Z</time></trkpt>
</trkseg>
</trk>
<trk>
<name>negbn7</name>
<cmt>v</cmt>
<desc>Boneffe Chemin n°7 </desc>
<link href="https://chemins.be/boneffe/chemin/7"/><trkseg>
<trkpt lat="50.632244" lon="4.951436"><time>2026-05-10T00:54:36Z</time></trkpt>
<trkpt lat="50.635426" lon="4.951447"><time>2026-05-10T01:04:36Z</time></trkpt>
<trkpt lat="50.637455" lon="4.951981"><time>2026-05-10T01:14:36Z</time></trkpt>
<trkpt lat="50.638618" lon="4.953098"><time>2026-05-10T01:24:36Z</time></trkpt>
<trkpt lat="50.641102" lon="4.952577"><time>2026-05-10T01:34:36Z</time></trkpt>
<trkpt lat="50.642057" lon="4.952151"><time>2026-05-10T01:44:36Z</time></trkpt>
</trkseg></trk>
<trk>
<name>negbn7</name>
<cmt>s</cmt>
<desc>Boneffe Chemin n°7 </desc>
<link href="https://chemins.be/boneffe/chemin/7"/><trkseg>
<trkpt lat="50.642057" lon="4.952151"><time>2026-05-10T01:44:36Z</time></trkpt>
<trkpt lat="50.643152" lon="4.952688"><time>2026-05-10T01:54:36Z</time></trkpt>
</trkseg>
</trk>
<trk>
<name>negbn8</name>
<cmt>v</cmt>
<desc>Boneffe Chemin n°8 </desc>
<link href="https://chemins.be/boneffe/chemin/8"/><trkseg>
<trkpt lat="50.624881" lon="4.953225"><time>2026-05-10T00:54:36Z</time></trkpt>
<trkpt lat="50.625634" lon="4.951708"><time>2026-05-10T01:04:36Z</time></trkpt>
<trkpt lat="50.626339" lon="4.949285"><time>2026-05-10T01:14:36Z</time></trkpt>
<trkpt lat="50.627239" lon="4.947247"><time>2026-05-10T01:24:36Z</time></trkpt>
<trkpt lat="50.628706" lon="4.945046"><time>2026-05-10T01:34:36Z</time></trkpt>
</trkseg></trk>
<trk>
<name>negbn8</name>
<cmt>s</cmt>
<desc>Boneffe Chemin n°8 </desc>
<link href="https://chemins.be/boneffe/chemin/8"/><trkseg>
<trkpt lat="50.628706" lon="4.945046"><time>2026-05-10T01:34:36Z</time></trkpt>
<trkpt lat="50.629329" lon="4.944488"><time>2026-05-10T01:44:36Z</time></trkpt>
<trkpt lat="50.630064" lon="4.943112"><time>2026-05-10T01:54:36Z</time></trkpt>
</trkseg>
</trk>
<trk>
<name>negbn9</name>
<cmt>s</cmt>
<desc>Boneffe Chemin n°9 </desc>
<link href="https://chemins.be/boneffe/chemin/9"/><trkseg>
<trkpt lat="50.622461" lon="4.967638"><time>2026-05-10T00:54:36Z</time></trkpt>
<trkpt lat="50.616880" lon="4.963851"><time>2026-05-10T01:04:36Z</time></trkpt>
</trkseg></trk>
<trk>
<name>negbn9</name>
<cmt>v</cmt>
<desc>Boneffe Chemin n°9 </desc>
<link href="https://chemins.be/boneffe/chemin/9"/><trkseg>
<trkpt lat="50.616880" lon="4.963851"><time>2026-05-10T01:04:36Z</time></trkpt>
<trkpt lat="50.616252" lon="4.963560"><time>2026-05-10T01:14:36Z</time></trkpt>
</trkseg></trk>
<trk>
<name>negbn9</name>
<cmt>q</cmt>
<desc>Boneffe Chemin n°9 </desc>
<link href="https://chemins.be/boneffe/chemin/9"/><trkseg>
<trkpt lat="50.616252" lon="4.963560"><time>2026-05-10T01:14:36Z</time></trkpt>
<trkpt lat="50.614146" lon="4.962149"><time>2026-05-10T01:24:36Z</time></trkpt>
<trkpt lat="50.608859" lon="4.957081"><time>2026-05-10T01:34:36Z</time></trkpt>
</trkseg>
</trk>
<trk>
<name>negbnL143</name>
<cmt>s</cmt>
<desc>Boneffe Chemin n°L143 </desc>
<link href="https://chemins.be/boneffe/chemin/L143"/><trkseg>
<trkpt lat="50.625672" lon="4.944133"><time>2026-05-10T00:54:36Z</time></trkpt>
<trkpt lat="50.626962" lon="4.954014"><time>2026-05-10T01:04:36Z</time></trkpt>
<trkpt lat="50.628568" lon="4.960083"><time>2026-05-10T01:14:36Z</time></trkpt>
<trkpt lat="50.629085" lon="4.961051"><time>2026-05-10T01:24:36Z</time></trkpt>
</trkseg>
</trk>
</gpx>